Location: Glencliff
(36.1226°N, 86.7183°W)
Time: 16:34:37
(UTC+00:00)

Cosmos 1833 Rocket - Pass Details

Date: 25 August 2019
Orbit: 834 x 838 km, 71.0° (Epoch: 16 October)

Event Time Altitude Azimuth Distance (km) Brightness Sun altitude
Rises 02:18:35 0° 202° (SSW) 3,372 5.7 -21.7°
Reaches altitude 10° 02:21:01 10° 203° (SSW) 2,442 5.0 -22.1°
Maximum altitude 02:26:38 84° 291° (WNW) 846 2.6 -23.1°
Drops below altitude 10° 02:32:17 10° 20° (NNE) 2,454 5.3 -24.0°
Sets 02:34:43 0° 21° (NNE) 3,391 6.0 -24.4°
